Regional Weather Roundup
Issued by NWS Albuquerque, NM

Current Version | Previous Version | Text Only | Print | Product List | Glossary On
Versions: 1 2 3 4 5 6 7 8 9 10 11 12 13 14 15 16 17 18 19 20 21 22 23 24 25 26 27 28 29 30 31 32 33 34 35 36 37 38 39 40 41 42 43 44 45 46 47 48 49 50
000 NZUS01 KABQ 041310 RWRABQ NEW MEXICO REGIONAL WEATHER ROUNDUP NATIONAL WEATHER SERVICE ALBUQUERQUE NM 600 AM MST THU MAR 04 2021 -----NORTHERN NEW MEXICO AND NEARBY AREAS----- CITY SKY/WX TMP DP RH WIND PRES REMARKS ALBUQUERQUE CLOUDY 48 22 35 W9 30.05R BELEN NOT AVBL SOCORRO NOT AVBL CITY SKY/WX TMP DP RH WIND PRES REMARKS SANTA FE CLOUDY 37 16 42 N10 30.02R LOS ALAMOS CLOUDY 40 26 56 NW5G17 30.05R TAOS CLOUDY 35 30 82 SE7 30.08R WCI 29 ANGEL FIRE CLOUDY 33 24 70 W16G24 30.06R WCI 23 FARMINGTON CLOUDY 40 25 55 S5 30.03R GRANTS PTCLDY 37 23 57 W14G28 30.10S GALLUP PTCLDY 32 23 69 S8 30.09R WCI 25 FLAGSTAFF LGT SNOW 30 28 92 W13G20 30.07R FOG WCI 20 DURANGO CLOUDY 32 32 100 SE5 30.04S WCI 27 CITY SKY/WX TMP DP RH WIND PRES REMARKS ALAMOSA FLURRIES 32 30 92 SE8 30.00F WCI 25 DENVER MOCLDY 35 19 52 SE10 29.94F WCI 27 CLAYTON PTCLDY 47 13 25 SW9 29.96R RATON PTCLDY 30 3 31 N8 29.97F WCI 22 LAS VEGAS LGT RAIN 43 21 41 SW12G26 29.98F CLINES CORNERS PTCLDY 39 15 37 SW18 30.04S SANTA ROSA FAIR 36 9 31 S3 29.97S TUCUMCARI PTCLDY 51 17 26 SW8 29.91F CLOVIS (AFB) PTCLDY 46 18 32 S7 29.98F CLOVIS PTCLDY 41 15 35 W3 29.98F AMARILLO MOCLDY 41 17 38 SE6 29.97S -----SOUTHERN NEW MEXICO AND NEARBY AREAS----- CITY SKY/WX TMP DP RH WIND PRES REMARKS T OR C CLEAR 53 24 32 SW16G26 30.03R DEMING CLEAR 45 27 49 W12 30.07R TUCSON CLEAR 48 35 60 CALM 30.16R EL PASO PTCLDY 60 27 28 W15 30.00S LAS CRUCES CLEAR 50 24 36 W14 30.05R CITY SKY/WX TMP DP RH WIND PRES REMARKS ALAMOGORDO PTCLDY 56 27 33 S7G20 30.04R RUIDOSO PTCLDY 46 27 46 SW14 30.09R ROSWELL CLEAR 45 24 43 SE7 29.95F CARLSBAD PTCLDY 48 29 47 S12 29.97S HOBBS CLEAR 45 30 57 S9 30.00S

USA.gov is the U.S. government's official web portal to all federal, state and local government web resources and services.